Погода в Спасской Губе

Россия / Республика Карелия     62°12′56″N   33°48′56″E
темп.,
°C
ветер,
м/с
пор.,
м/с
влажн.,
%
обл.,
%
осадки,
мм/ч
давл.,
гПа
погр.,
м
4 июля, пн
пн400:00+18юз118344 0.0 101513
03:00+17юз119459 0.1 101511
06:00+20зюз139130 0.0 1015122
09:00+24зюз236586 0.0 1015602
12:00+28зюз234590 0.0 10142024
15:00+24ююв246799 0.1 1013112
18:00+26зюз0256100 0.0 1013690
21:00+21ююз228450 1.4 101250
5 июля, вт
вт500:00+17ююз22935 0.0 101230
03:00+15юз259729 0.0 101283
06:00+17юз268792 0.0 1012173
09:00+23юз35555 0.0 1011756
12:00+26зюз354075 0.0 10102047
15:00+18ю51087100 2.4 1010492
18:00+19ююв248935 7.4 1010307
21:00+18ю25922 7.9 1009115
6 июля, ср
ср600:00+15юз310952 0.0 1009211
03:00+13юз399583 0.0 1009218
06:00+13юз411870 0.0 1010363
09:00+19зюз46545 0.0 10101029
12:00+22зюз474023 0.0 10102004
15:00+22юз573864 0.0 10102516
18:00+20юз375298 0.0 1010684
21:00+17ююз2568100 0.0 1010103
7 июля, чт
чт700:00+13юз127787 0.0 101021
03:00+12юз2483100 0.1 101076
06:00+14ю119193 0.8 100936
09:00+17ююз127732 1.4 1009408
12:00+18юз34756 2.6 1010976
15:00+23ююз2542100 3.8 10092270
18:00+22юз354399 0.0 10101956
21:00+17юз266642 0.0 1011150
8 июля, пт
пт800:00+13ююз2108361 0.0 1012212
03:00+13юз31078100 0.0 1012340
06:00+14юз31077100 0.0 1012527
09:00+18зюз486143 0.0 10121289
12:00+19юз4651100 0.1 10121738
15:00+17ююз4768100 0.3 1012631
18:00+19юз465894 0.0 1012845
21:00+16юз3772100 0.0 1012247